Regional Weather Roundup
Issued by NWS

Home | Current Version | Previous Version | Graphics & Text | Print | Product List | Glossary On
Versions: 1 2 3 4 5 6 7 8 9 10 11 12 13 14 15 16 17 18 19 20 21 22 23 24 25 26 27 28
000
ASUS45 KCYS 170310
RWRWY

WYOMING REGIONAL WEATHER ROUNDUP
NATIONAL WEATHER SERVICE CHEYENNE WY
800 PM MST MON JAN 16 2017

NOTE:  "FAIR" INDICATES FEW OR NO CLOUDS BELOW 12,000 FEET
WITH NO SIGNIFICANT WEATHER AND/OR OBSTRUCTIONS TO VISIBILITY.

WYZ001-170400-
YELLOWSTONE NATIONAL PARK

CITY           SKY/WX    TMP DP  RH WIND       PRES   REMARKS
LK YELLOWSTONE   N/A     -5  -8  87 CALM      30.18R
W YELLOWSTONE  NOT AVBL

$$
WYZ002>013-054>058-071-098>099-170400-
NORTHERN WYOMING

CITY           SKY/WX    TMP DP  RH WIND       PRES   REMARKS
JACKSON        CLEAR     -9 -11  92 CALM      30.22S
CODY           FAIR       8   1  73 SW5       30.06F WCI   0
GREYBULL       FAIR     -10 -16  74 SW3       30.14F
WORLAND        FAIR      -1  -4  87 CALM      30.12S
SHERIDAN       FAIR      17   6  62 VRB6      30.04F WCI   9
BUFFALO        FAIR      23   8  52 S10       30.03F WCI  12
GILLETTE       FAIR      18   9  68 S10       30.05F WCI   6
HULETT         FAIR      19   9  63 S14       30.07F WCI   6
NEWCASTLE      FAIR      23  12  63 NW7       30.10S WCI  15

$$
WYZ014>020-022>026-101>103-170400-
CENTRAL WYOMING

CITY           SKY/WX    TMP DP  RH WIND       PRES   REMARKS
BIG PINEY      FAIR     -12 -16  82 E6        30.16S WCI -26
PINEDALE       FAIR     -17 -20  83 CALM      30.16S
DUBOIS         NOT AVBL
LANDER         FAIR       6   2  83 SE5       30.10F WCI  -3
RIVERTON       FAIR       0  -4  83 W6        30.13S WCI -12
CASPER         FAIR      19   9  65 SW13      30.09F WCI   6
DOUGLAS        FAIR      17  10  74 CALM      30.10F

$$
WYZ021-027>030-104>119-170400-
SOUTHERN WYOMING

CITY           SKY/WX    TMP DP  RH WIND       PRES   REMARKS
EVANSTON       FAIR       7   1  76 SE3       30.16F
ROCK SPRINGS   FAIR       2  -4  76 W3        30.17S
RAWLINS        FAIR       1  -5  75 CALM      30.14S
LARAMIE        FAIR       8   6  92 CALM      30.10S
CHEYENNE       FAIR      25  13  60 NW5       30.09S WCI  19
TORRINGTON     FAIR      25  15  66 W5        30.10S WCI  19

$$




USA.gov is the U.S. government's official web portal to all federal, state and local government web resources and services.